Naples, FL

10:21 PM EST on February 09, 2016 (GMT -0500)
Naples Municipal

Weather History for KAPF - August, 2013

Change the Weather History Date:

Saturday, August 3, 2013

  Actual Average Record
Temperature  
Mean Temperature 83 °F 83 °F  
Max Temperature 87 °F 91 °F 97 °F (1972)
Min Temperature 78 °F 75 °F 68 °F (1972)
Degree Days  
Heating Degree Days 0 0  
Month to date heating degree days 0 0  
Since 1 June heating degree days 0 0  
Since 1 July heating degree days 0 0  
Cooling Degree Days 18 18  
Month to date cooling degree days 53 54  
Year to date cooling degree days 2183 2148  
Since 1 June cooling degree days 1079 1120  
Growing Degree Days 32 (Base 50)    
Moisture  
Dew Point 76 °F    
Average Humidity 86    
Maximum Humidity 97    
Minimum Humidity 74    
Precipitation  
Precipitation T in 0.27 in 2.80 in (2001)
Month to date precipitation 0.01 0.79  
Year to date precipitation 28.17 28.73  
Snow  
Snow 0.00 in - - ()
Month to date snowfall 0.0  
Since 1 June snowfall 0.0  
Since 1 July snowfall 0.0  
Snow Depth 0.00 in    
Sea Level Pressure  
Sea Level Pressure 30.08 in    
Wind  
Wind Speed 3 mph (SE)    
Max Wind Speed 16 mph    
Max Gust Speed 20 mph    
Visibility 10 miles    
Events Thunderstorm    
T = Trace of Precipitation, MM = Missing Value Source: NWS Daily Summary

Daily Weather History Graph

Daily Weather History Graph

Search for Another Location

Airport or City:

Trip Planner

Search our weather history database for the weather conditions in past years. The results will help you decide how hot, cold, wet, or windy it might be!

Date:

Astronomy

Aug. 03, 2013 Rise Set
Actual Time 6:53 AM EDT 8:12 PM EDT
Civil Twilight 6:29 AM EDT 8:36 PM EDT
Nautical Twilight 5:59 AM EDT 9:06 PM EDT
Astronomical Twilight 5:29 AM EDT 9:36 PM EDT
Moon 4:06 AM EDT (8/3) 5:50 PM EDT (8/3)
Length of Visible Light 14h 07m
Length of Day
13h 18m
Waning Crescent, 9% of the Moon is Illuminated
Aug 3
Waning Crescent
Aug 6
New
Aug 14
First Quarter
Aug 20
Full
Aug 28
Last Quarter

Hourly Weather History & Observations

Time (EDT) Temp. Heat Index Dew Point Humidity Pressure Visibility Wind Dir Wind Speed Gust Speed Precip Events Conditions
12:53 AM 84.0 °F 92.6 °F 75.9 °F 76% 30.05 in 10.0 mi Calm Calm - N/A   Partly Cloudy
1:53 AM 82.0 °F 90.2 °F 77.0 °F 85% 30.05 in 10.0 mi East 3.5 mph - N/A   Scattered Clouds
2:53 AM 81.0 °F 87.3 °F 75.9 °F 85% 30.04 in 10.0 mi SSE 3.5 mph - N/A   Mostly Cloudy
3:53 AM 81.0 °F 87.9 °F 77.0 °F 88% 30.03 in 10.0 mi ESE 3.5 mph - N/A   Partly Cloudy
4:53 AM 80.1 °F 86.4 °F 78.1 °F 94% 30.03 in 10.0 mi Calm Calm - N/A   Clear
5:53 AM 80.1 °F 85.8 °F 77.0 °F 90% 30.03 in 10.0 mi Calm Calm - N/A   Clear
6:53 AM 78.1 °F - 77.0 °F 96% 30.05 in 9.0 mi ENE 3.5 mph - N/A   Partly Cloudy
7:53 AM 80.1 °F 85.8 °F 77.0 °F 90% 30.06 in 7.0 mi Calm Calm - N/A   Partly Cloudy
8:53 AM 84.0 °F 94.8 °F 78.1 °F 82% 30.08 in 9.0 mi SE 3.5 mph - N/A   Partly Cloudy
9:53 AM 86.0 °F 96.9 °F 77.0 °F 74% 30.08 in 10.0 mi Calm Calm - N/A   Mostly Cloudy
10:53 AM 86.0 °F 95.1 °F 75.0 °F 70% 30.09 in 10.0 mi SSE 3.5 mph - N/A Thunderstorm Scattered Clouds
11:36 AM 84.2 °F 92.3 °F 75.2 °F 74% 30.10 in 10.0 mi Calm Calm - N/A   Partly Cloudy
11:53 AM 84.9 °F 94.1 °F 75.9 °F 74% 30.10 in 10.0 mi Calm Calm - N/A   Partly Cloudy
12:13 PM 86.0 °F 99.3 °F 78.8 °F 79% 30.10 in 9.0 mi SW 8.1 mph - N/A Thunderstorm Clear
12:29 PM 86.0 °F 99.3 °F 78.8 °F 79% 30.10 in 9.0 mi SW 9.2 mph - N/A   Clear
12:36 PM 87.8 °F 102.5 °F 78.8 °F 75% 30.10 in 9.0 mi SW 8.1 mph - N/A Thunderstorm Clear
12:53 PM 86.0 °F 98.3 °F 78.1 °F 77% 30.10 in 9.0 mi SW 10.4 mph - N/A Thunderstorm Scattered Clouds
1:42 PM 82.4 °F 89.5 °F 75.2 °F 79% 30.11 in 8.0 mi SSW 5.8 mph - 0.00 in   Mostly Cloudy
1:53 PM 82.9 °F 90.2 °F 75.0 °F 77% 30.10 in 9.0 mi SSW 4.6 mph - 0.00 in   Scattered Clouds
2:53 PM 82.9 °F 89.4 °F 73.9 °F 74% 30.10 in 10.0 mi East 3.5 mph - N/A   Clear
3:53 PM 82.0 °F 89.4 °F 75.9 °F 82% 30.09 in 10.0 mi ESE 6.9 mph - N/A   Scattered Clouds
4:27 PM 82.4 °F 89.5 °F 75.2 °F 79% 30.10 in 10.0 mi SSE 8.1 mph - N/A Thunderstorm Scattered Clouds
4:42 PM 82.4 °F 89.5 °F 75.2 °F 79% 30.10 in 10.0 mi SE 9.2 mph - N/A   Partly Cloudy
4:53 PM 82.0 °F 88.6 °F 75.0 °F 79% 30.10 in 10.0 mi SE 9.2 mph - N/A   Partly Cloudy
5:11 PM 82.4 °F 89.5 °F 75.2 °F 79% 30.10 in 10.0 mi SE 9.2 mph - N/A Thunderstorm Thunderstorm
5:53 PM 82.0 °F 86.7 °F 72.0 °F 71% 30.09 in 10.0 mi SE 4.6 mph - N/A Thunderstorm Clear
6:04 PM 82.4 °F 88.2 °F 73.4 °F 74% 30.09 in 10.0 mi Calm Calm - N/A   Clear
6:53 PM 82.0 °F 88.6 °F 75.0 °F 79% 30.08 in 10.0 mi Calm Calm - N/A   Clear
7:53 PM 82.0 °F 88.6 °F 75.0 °F 79% 30.09 in 10.0 mi ENE 3.5 mph - N/A   Clear
8:53 PM 80.1 °F 85.4 °F 75.9 °F 87% 30.09 in 10.0 mi East 4.6 mph - N/A   Clear
9:53 PM 79.0 °F - 77.0 °F 94% 30.11 in 9.0 mi Calm Calm - N/A   Clear
10:53 PM 79.0 °F - 77.0 °F 94% 30.12 in 9.0 mi East 3.5 mph - N/A   Partly Cloudy
11:53 PM 79.0 °F - 77.0 °F 94% 30.12 in 9.0 mi ESE 3.5 mph - N/A   Clear